Time,TemperatureF,DewpointF,PressureIn,WindDirection,WindDirectionDegrees,WindSpeedMPH,WindSpeedGustMPH,Humidity,HourlyPrecipIn,Conditions,Clouds,dailyrainin,SoftwareType,DateUTC
2013-02-17 00:10:00,15.6,13.0,30.12,West,265,1.0,1.0,90,0.00,,,0.00,weatherlink.com 1.10,2013-02-17 05:10:00,
2013-02-17 00:25:00,15.7,13.0,30.12,NW,318,0.0,3.0,90,0.00,,,0.00,weatherlink.com 1.10,2013-02-17 05:25:00,
2013-02-17 00:40:00,15.9,14.0,30.12,NW,317,0.0,3.0,90,0.00,,,0.00,weatherlink.com 1.10,2013-02-17 05:40:00,
2013-02-17 00:55:00,16.2,14.0,30.12,North,355,0.0,5.0,90,0.00,,,0.00,weatherlink.com 1.10,2013-02-17 05:55:00,
2013-02-17 01:10:00,16.6,14.0,30.13,North,350,1.0,3.0,90,0.00,,,0.00,weatherlink.com 1.10,2013-02-17 06:10:00,
2013-02-17 01:25:00,16.7,14.0,30.13,NNW,342,1.0,5.0,89,0.00,,,0.00,weatherlink.com 1.10,2013-02-17 06:25:00,
2013-02-17 01:40:00,16.4,14.0,30.13,NNW,343,2.0,4.0,88,0.00,,,0.00,weatherlink.com 1.10,2013-02-17 06:40:00,
2013-02-17 01:55:00,16.0,13.0,30.13,NNW,344,6.0,8.0,87,0.00,,,0.00,weatherlink.com 1.10,2013-02-17 06:55:00,
2013-02-17 02:10:00,15.7,13.0,30.13,NNW,331,3.0,6.0,87,0.00,,,0.00,weatherlink.com 1.10,2013-02-17 07:10:00,
2013-02-17 02:25:00,15.3,12.0,30.14,NE,46,2.0,5.0,87,0.00,,,0.00,weatherlink.com 1.10,2013-02-17 07:25:00,
2013-02-17 02:40:00,14.6,11.0,30.14,North,349,1.0,6.0,86,0.00,,,0.00,weatherlink.com 1.10,2013-02-17 07:40:00,
2013-02-17 02:55:00,14.1,10.0,30.14,NNW,338,0.0,7.0,84,0.00,,,0.00,weatherlink.com 1.10,2013-02-17 07:55:00,
2013-02-17 03:10:00,13.4,9.0,30.15,NNW,348,1.0,5.0,84,0.00,,,0.00,weatherlink.com 1.10,2013-02-17 08:10:00,
2013-02-17 03:25:00,12.9,9.0,30.15,NNW,334,0.0,7.0,84,0.00,,,0.00,weatherlink.com 1.10,2013-02-17 08:25:00,
2013-02-17 03:40:00,12.5,9.0,30.14,NNW,344,1.0,3.0,84,0.00,,,0.00,weatherlink.com 1.10,2013-02-17 08:40:00,
2013-02-17 03:55:00,11.9,8.0,30.15,NW,323,2.0,6.0,83,0.00,,,0.00,weatherlink.com 1.10,2013-02-17 08:55:00,
2013-02-17 04:10:00,11.7,8.0,30.16,NNW,344,0.0,4.0,83,0.00,,,0.00,weatherlink.com 1.10,2013-02-17 09:10:00,
2013-02-17 04:25:00,11.4,7.0,30.16,NNW,338,0.0,4.0,83,0.00,,,0.00,weatherlink.com 1.10,2013-02-17 09:25:00,
2013-02-17 04:40:00,11.0,7.0,30.16,NNW,341,0.0,3.0,83,0.00,,,0.00,weatherlink.com 1.10,2013-02-17 09:40:00,
2013-02-17 04:56:00,10.7,7.0,30.16,NNW,340,0.0,1.0,83,0.00,,,0.00,weatherlink.com 1.10,2013-02-17 09:56:00,
2013-02-17 05:11:00,10.4,7.0,30.17,NNW,340,0.0,2.0,84,0.00,,,0.00,weatherlink.com 1.10,2013-02-17 10:11:00,
2013-02-17 05:26:00,10.2,6.0,30.17,NNW,340,0.0,0.0,84,0.00,,,0.00,weatherlink.com 1.10,2013-02-17 10:26:00,
2013-02-17 05:42:00,9.8,6.0,30.18,NNW,340,0.0,0.0,84,0.00,,,0.00,weatherlink.com 1.10,2013-02-17 10:42:00,
2013-02-17 05:56:00,9.5,6.0,30.18,NNW,340,0.0,2.0,85,0.00,,,0.00,weatherlink.com 1.10,2013-02-17 10:56:00,
2013-02-17 06:11:00,9.2,6.0,30.19,NNW,340,1.0,2.0,85,0.00,,,0.00,weatherlink.com 1.10,2013-02-17 11:11:00,
2013-02-17 06:26:00,9.1,6.0,30.19,NNW,340,0.0,1.0,85,0.00,,,0.00,weatherlink.com 1.10,2013-02-17 11:26:00,
2013-02-17 06:41:00,9.0,5.0,30.20,NNW,340,0.0,1.0,85,0.00,,,0.00,weatherlink.com 1.10,2013-02-17 11:41:00,
2013-02-17 06:56:00,8.9,5.0,30.20,NNW,340,0.0,0.0,85,0.00,,,0.00,weatherlink.com 1.10,2013-02-17 11:56:00,
2013-02-17 07:11:00,8.7,5.0,30.21,NNW,340,0.0,1.0,85,0.00,,,0.00,weatherlink.com 1.10,2013-02-17 12:11:00,
2013-02-17 07:26:00,8.4,5.0,30.21,NNW,340,0.0,0.0,85,0.00,,,0.00,weatherlink.com 1.10,2013-02-17 12:26:00,
2013-02-17 07:41:00,8.1,5.0,30.21,NNW,340,0.0,1.0,86,0.00,,,0.00,weatherlink.com 1.10,2013-02-17 12:41:00,
2013-02-17 07:56:00,8.0,5.0,30.21,NNW,340,0.0,1.0,86,0.00,,,0.00,weatherlink.com 1.10,2013-02-17 12:56:00,
2013-02-17 08:11:00,8.2,5.0,30.22,NNW,340,0.0,2.0,87,0.00,,,0.00,weatherlink.com 1.10,2013-02-17 13:11:00,
2013-02-17 08:26:00,11.1,7.0,30.23,WNW,284,0.0,3.0,82,0.00,,,0.00,weatherlink.com 1.10,2013-02-17 13:26:00,
2013-02-17 08:41:00,12.4,7.0,30.22,NNW,328,2.0,3.0,79,0.00,,,0.00,weatherlink.com 1.10,2013-02-17 13:41:00,
2013-02-17 08:56:00,13.6,8.0,30.23,SW,232,7.0,7.0,77,0.00,,,0.00,weatherlink.com 1.10,2013-02-17 13:56:00,
2013-02-17 09:11:00,14.5,8.0,30.23,NNW,328,0.0,4.0,75,0.00,,,0.00,weatherlink.com 1.10,2013-02-17 14:11:00,
2013-02-17 09:26:00,15.4,9.0,30.23,NNW,331,2.0,6.0,74,0.00,,,0.00,weatherlink.com 1.10,2013-02-17 14:26:00,
2013-02-17 09:41:00,15.9,8.0,30.23,NNW,345,1.0,8.0,71,0.00,,,0.00,weatherlink.com 1.10,2013-02-17 14:41:00,
2013-02-17 09:56:00,16.5,8.0,30.24,NNW,337,4.0,9.0,68,0.00,,,0.00,weatherlink.com 1.10,2013-02-17 14:56:00,
2013-02-17 10:11:00,16.6,8.0,30.24,NNE,16,6.0,8.0,68,0.00,,,0.00,weatherlink.com 1.10,2013-02-17 15:11:00,
2013-02-17 10:26:00,17.0,8.0,30.25,NNW,334,5.0,9.0,67,0.00,,,0.00,weatherlink.com 1.10,2013-02-17 15:26:00,
2013-02-17 10:41:00,18.3,9.0,30.25,WNW,302,2.0,6.0,66,0.00,,,0.00,weatherlink.com 1.10,2013-02-17 15:41:00,
2013-02-17 10:56:00,18.3,9.0,30.25,North,360,2.0,9.0,66,0.00,,,0.00,weatherlink.com 1.10,2013-02-17 15:56:00,
2013-02-17 11:11:00,19.1,9.0,30.26,NNW,328,1.0,9.0,65,0.00,,,0.00,weatherlink.com 1.10,2013-02-17 16:11:00,
2013-02-17 11:26:00,19.7,10.0,30.26,North,351,4.0,9.0,66,0.00,,,0.00,weatherlink.com 1.10,2013-02-17 16:26:00,
2013-02-17 11:41:00,20.3,10.0,30.27,NNW,340,4.0,9.0,65,0.00,,,0.00,weatherlink.com 1.10,2013-02-17 16:41:00,
2013-02-17 11:56:00,20.7,10.0,30.27,NNW,340,4.0,11.0,64,0.00,,,0.00,weatherlink.com 1.10,2013-02-17 16:56:00,
2013-02-17 12:11:00,20.8,9.0,30.26,North,350,5.0,8.0,61,0.00,,,0.00,weatherlink.com 1.10,2013-02-17 17:11:00,
2013-02-17 12:27:00,22.0,11.0,30.26,NNW,345,5.0,10.0,63,0.00,,,0.00,weatherlink.com 1.10,2013-02-17 17:27:00,
2013-02-17 12:42:00,22.5,11.0,30.26,NNW,338,3.0,10.0,61,0.00,,,0.00,weatherlink.com 1.10,2013-02-17 17:42:00,
2013-02-17 12:57:00,21.9,8.0,30.25,West,269,1.0,12.0,56,0.00,,,0.00,weatherlink.com 1.10,2013-02-17 17:57:00,
2013-02-17 13:12:00,21.8,11.0,30.26,North,355,5.0,12.0,63,0.00,,,0.00,weatherlink.com 1.10,2013-02-17 18:12:00,
2013-02-17 13:27:00,21.1,8.0,30.26,NNW,342,4.0,12.0,57,0.00,,,0.00,weatherlink.com 1.10,2013-02-17 18:27:00,
2013-02-17 13:42:00,22.0,9.0,30.25,North,360,3.0,11.0,58,0.00,,,0.00,weatherlink.com 1.10,2013-02-17 18:42:00,
2013-02-17 13:57:00,22.0,10.0,30.25,NNW,336,1.0,11.0,59,0.00,,,0.00,weatherlink.com 1.10,2013-02-17 18:57:00,
2013-02-17 14:13:00,21.5,9.0,30.25,NNW,346,4.0,9.0,59,0.00,,,0.00,weatherlink.com 1.10,2013-02-17 19:13:00,
2013-02-17 14:27:00,21.9,9.0,30.24,WSW,248,2.0,5.0,58,0.00,,,0.00,weatherlink.com 1.10,2013-02-17 19:27:00,
2013-02-17 14:42:00,21.7,10.0,30.25,NNW,337,0.0,9.0,61,0.00,,,0.00,weatherlink.com 1.10,2013-02-17 19:42:00,
2013-02-17 14:57:00,22.3,9.0,30.24,NNE,32,2.0,5.0,57,0.00,,,0.00,weatherlink.com 1.10,2013-02-17 19:57:00,
2013-02-17 15:12:00,23.0,10.0,30.25,NW,318,2.0,7.0,58,0.00,,,0.00,weatherlink.com 1.10,2013-02-17 20:12:00,
2013-02-17 15:27:00,22.6,9.0,30.25,North,9,1.0,6.0,55,0.00,,,0.00,weatherlink.com 1.10,2013-02-17 20:27:00,
2013-02-17 15:42:00,24.4,10.0,30.24,North,5,2.0,5.0,54,0.00,,,0.00,weatherlink.com 1.10,2013-02-17 20:42:00,
2013-02-17 15:57:00,23.9,8.0,30.24,North,11,1.0,6.0,51,0.00,,,0.00,weatherlink.com 1.10,2013-02-17 20:57:00,
2013-02-17 16:12:00,24.1,9.0,30.24,NNW,346,4.0,6.0,52,0.00,,,0.00,weatherlink.com 1.10,2013-02-17 21:12:00,
2013-02-17 16:27:00,24.2,8.0,30.25,NW,311,1.0,6.0,51,0.00,,,0.00,weatherlink.com 1.10,2013-02-17 21:27:00,
2013-02-17 16:42:00,24.2,8.0,30.24,SW,231,2.0,4.0,50,0.00,,,0.00,weatherlink.com 1.10,2013-02-17 21:42:00,
2013-02-17 16:57:00,23.8,9.0,30.25,WSW,257,3.0,4.0,54,0.00,,,0.00,weatherlink.com 1.10,2013-02-17 21:57:00,
2013-02-17 17:12:00,23.4,8.0,30.25,NW,308,1.0,6.0,51,0.00,,,0.00,weatherlink.com 1.10,2013-02-17 22:12:00,
2013-02-17 17:27:00,23.0,8.0,30.25,SSW,206,0.0,3.0,53,0.00,,,0.00,weatherlink.com 1.10,2013-02-17 22:27:00,
2013-02-17 17:42:00,22.9,9.0,30.25,SW,234,1.0,2.0,56,0.00,,,0.00,weatherlink.com 1.10,2013-02-17 22:42:00,
2013-02-17 17:57:00,22.5,8.0,30.25,NW,311,0.0,3.0,55,0.00,,,0.00,weatherlink.com 1.10,2013-02-17 22:57:00,
2013-02-17 18:12:00,22.3,8.0,30.25,NW,311,0.0,1.0,55,0.00,,,0.00,weatherlink.com 1.10,2013-02-17 23:12:00,
2013-02-17 18:27:00,21.7,9.0,30.26,NW,311,0.0,0.0,59,0.00,,,0.00,weatherlink.com 1.10,2013-02-17 23:27:00,
2013-02-17 18:42:00,20.9,9.0,30.26,NW,311,0.0,0.0,61,0.00,,,0.00,weatherlink.com 1.10,2013-02-17 23:42:00,
2013-02-17 18:57:00,20.1,9.0,30.26,NW,311,0.0,0.0,63,0.00,,,0.00,weatherlink.com 1.10,2013-02-17 23:57:00,
2013-02-17 19:12:00,19.4,9.0,30.26,NW,311,0.0,0.0,64,0.00,,,0.00,weatherlink.com 1.10,2013-02-18 00:12:00,
2013-02-17 19:27:00,18.6,9.0,30.26,NW,311,0.0,0.0,67,0.00,,,0.00,weatherlink.com 1.10,2013-02-18 00:27:00,
2013-02-17 19:42:00,18.2,9.0,30.26,NW,311,0.0,0.0,68,0.00,,,0.00,weatherlink.com 1.10,2013-02-18 00:42:00,
2013-02-17 19:57:00,17.7,10.0,30.25,NW,311,0.0,0.0,71,0.00,,,0.00,weatherlink.com 1.10,2013-02-18 00:57:00,
2013-02-17 20:12:00,17.1,10.0,30.26,NW,311,0.0,0.0,72,0.00,,,0.00,weatherlink.com 1.10,2013-02-18 01:12:00,
2013-02-17 20:27:00,16.6,9.0,30.26,NW,311,0.0,0.0,73,0.00,,,0.00,weatherlink.com 1.10,2013-02-18 01:27:00,
2013-02-17 20:42:00,16.0,10.0,30.26,NW,311,0.0,0.0,77,0.00,,,0.00,weatherlink.com 1.10,2013-02-18 01:42:00,
2013-02-17 20:57:00,15.5,10.0,30.27,NW,311,0.0,0.0,77,0.00,,,0.00,weatherlink.com 1.10,2013-02-18 01:57:00,
2013-02-17 21:12:00,15.1,9.0,30.27,NW,311,0.0,0.0,78,0.00,,,0.00,weatherlink.com 1.10,2013-02-18 02:12:00,
2013-02-17 21:27:00,14.7,10.0,30.27,NW,311,0.0,0.0,80,0.00,,,0.00,weatherlink.com 1.10,2013-02-18 02:27:00,
2013-02-17 21:42:00,14.4,10.0,30.27,NW,311,0.0,0.0,81,0.00,,,0.00,weatherlink.com 1.10,2013-02-18 02:42:00,
2013-02-17 21:57:00,13.9,9.0,30.26,NW,311,0.0,1.0,82,0.00,,,0.00,weatherlink.com 1.10,2013-02-18 02:57:00,
2013-02-17 22:12:00,13.5,9.0,30.26,NW,311,0.0,0.0,81,0.00,,,0.00,weatherlink.com 1.10,2013-02-18 03:12:00,
2013-02-17 22:27:00,13.2,9.0,30.27,NW,311,0.0,1.0,83,0.00,,,0.00,weatherlink.com 1.10,2013-02-18 03:27:00,
2013-02-17 22:42:00,12.9,9.0,30.27,NW,311,0.0,0.0,83,0.00,,,0.00,weatherlink.com 1.10,2013-02-18 03:42:00,
2013-02-17 22:57:00,12.6,9.0,30.26,NW,311,0.0,0.0,84,0.00,,,0.00,weatherlink.com 1.10,2013-02-18 03:57:00,
2013-02-17 23:12:00,12.3,8.0,30.27,NW,311,0.0,0.0,84,0.00,,,0.00,weatherlink.com 1.10,2013-02-18 04:12:00,
2013-02-17 23:27:00,12.1,9.0,30.26,NW,311,0.0,0.0,85,0.00,,,0.00,weatherlink.com 1.10,2013-02-18 04:27:00,
2013-02-17 23:42:00,11.9,9.0,30.26,NW,311,0.0,1.0,86,0.00,,,0.00,weatherlink.com 1.10,2013-02-18 04:42:00,
2013-02-17 23:57:00,12.0,9.0,30.27,NW,311,0.0,1.0,87,0.00,,,0.00,weatherlink.com 1.10,2013-02-18 04:57:00,